Location: *
(58.7167°N, 26.1833°E)
Time: 13:08:17
(UTC+00:00)

Cosmos 1437 Rocket - Pass Details

Date: 25 August 2019
Orbit: 506 x 563 km, 81.2° (Epoch: 23 October)

Event Time Altitude Azimuth Distance (km) Brightness Sun altitude
Rises 21:18:35 0° 345° (NNW) 2,756 8.1 -19.6°
Reaches altitude 10° 21:20:49 10° 349° (N) 1,850 6.7 -19.7°
Maximum altitude 21:24:51 60° 70° (ENE) 634 3.1 -19.8°
Enters shadow 21:25:41 48° 120° (ESE) 725 3.1 -19.9°
